Location: Newark
(53.0000°N, 1.0000°W)
Time: 00:37:09
(UTC+00:00)

Envisat - Visible Passes

Search period start: 18 November 2019 00:00
Search period end: 28 November 2019 00:00
Orbit: 764 x 766 km, 98.1° (Epoch: 17 November)

Date Brightness Start Highest point End Pass type
(mag) Time Alt. Az. Time Alt. Az. Time Alt. Az.
18 Nov 4.4 06:36:09 10° NNE 06:41:03 45° E 06:45:54 10° S visible
18 Nov 3.1 17:56:43 10° SSE 18:01:48 80° WSW 18:06:56 10° NNW visible
18 Nov 6.0 19:39:05 10° WSW 19:41:41 14° W 19:44:18 10° NW visible
19 Nov 5.6 05:59:53 10° NE 06:03:58 24° E 06:08:01 10° SE visible
19 Nov 3.1 17:20:07 10° SE 17:25:04 55° ENE 17:30:03 10° N visible
19 Nov 5.1 19:00:10 10° SSW 19:04:26 26° W 19:08:43 10° NW visible
20 Nov 6.2 05:24:37 10° ENE 05:26:40 12° E 05:28:42 10° ESE visible
20 Nov 3.7 16:44:07 10° ESE 16:48:32 31° ENE 16:52:58 10° N visible
20 Nov 3.9 18:22:27 10° S 18:27:23 50° W 18:32:21 10° NNW visible
21 Nov 4.7 06:24:58 10° NNE 06:29:42 37° E 06:34:23 10° SSE visible
21 Nov 2.9 17:45:26 10° SSE 17:50:31 86° ENE 17:55:39 10° NNW visible
21 Nov 5.7 19:26:59 10° SW 19:30:15 17° W 19:33:32 10° NW visible
22 Nov 5.8 05:48:52 10° NE 05:52:33 20° E 05:56:13 10° SE visible
22 Nov 3.2 17:09:01 10° SE 17:13:51 46° ENE 17:18:43 10° N visible
22 Nov 4.8 18:48:32 10° SSW 18:53:03 32° W 18:57:36 10° NNW visible
23 Nov 3.8 06:50:18 10° NNE 06:55:21 59° E 07:00:21 10° S visible
23 Nov 3.9 16:33:11 10° ESE 16:37:21 26° ENE 16:41:32 10° N visible
23 Nov 3.5 18:11:02 10° S 18:16:03 61° WSW 18:21:07 10° NNW visible
23 Nov 6.2 19:55:27 10° W 19:56:11 10° W 19:56:54 10° WNW visible
24 Nov 5.1 06:13:50 10° NNE 06:18:20 31° E 06:22:49 10° SSE visible
24 Nov 2.9 17:34:12 10° SSE 17:39:15 72° ENE 17:44:21 10° NNW visible
24 Nov 5.5 19:15:04 10° SW 19:18:49 21° W 19:22:36 10° NW visible
25 Nov 6.0 05:37:58 10° NE 05:41:08 16° E 05:44:16 10° SE visible
25 Nov 3.4 16:57:57 10° SE 17:02:38 39° ENE 17:07:20 10° N visible
25 Nov 4.4 18:36:58 10° SSW 18:41:41 38° W 18:46:27 10° NNW visible
26 Nov 4.2 06:39:04 10° NNE 06:44:01 48° E 06:48:55 10° S visible
26 Nov 3.2 17:59:40 10° S 18:04:45 74° WSW 18:09:52 10° NNW visible
26 Nov 6.0 19:42:26 10° WSW 19:44:42 13° W 19:46:58 10° WNW visible
27 Nov 5.4 06:02:44 10° NE 06:06:57 25° E 06:11:08 10° SSE visible
27 Nov 3.0 17:23:01 10° SSE 17:28:00 60° ENE 17:33:01 10° N visible
27 Nov 5.2 19:03:17 10° SW 19:07:25 25° W 19:11:35 10° NW visible
